Time,TemperatureF,DewpointF,PressureIn,WindDirection,WindDirectionDegrees,WindSpeedMPH,WindSpeedGustMPH,Humidity,HourlyPrecipIn,Conditions,Clouds,dailyrainin,SoftwareType,DateUTC
2013-03-20 00:02:00,61.0,48.0,30.02,NNE,28,1.0,3.0,62,0.00,,,0.00,,2013-03-20 05:02:00,
2013-03-20 00:12:00,61.0,48.0,30.02,NE,42,1.0,5.0,62,0.00,,,0.00,,2013-03-20 05:12:00,
2013-03-20 00:22:00,61.0,48.0,30.02,NE,42,1.0,5.0,62,0.00,,,0.00,,2013-03-20 05:22:00,
2013-03-20 00:32:00,61.0,48.0,30.03,NNE,33,1.0,5.0,62,0.00,,,0.00,,2013-03-20 05:32:00,
2013-03-20 00:42:00,61.0,48.0,30.03,NNE,33,1.0,5.0,62,0.00,,,0.00,,2013-03-20 05:42:00,
2013-03-20 00:52:00,61.0,48.0,30.03,NNE,33,1.0,5.0,62,0.00,,,0.00,,2013-03-20 05:52:00,
2013-03-20 01:02:00,62.0,49.0,30.03,ENE,59,2.0,7.0,62,0.00,,,0.00,,2013-03-20 06:02:00,
2013-03-20 01:12:00,62.0,49.0,30.03,ENE,59,2.0,7.0,62,0.00,,,0.00,,2013-03-20 06:12:00,
2013-03-20 01:22:00,62.0,49.0,30.04,ENE,65,3.0,8.0,62,0.00,,,0.00,,2013-03-20 06:22:00,
2013-03-20 01:32:00,62.0,49.0,30.04,ENE,57,0.0,7.0,62,0.00,,,0.00,,2013-03-20 06:32:00,
2013-03-20 01:42:00,62.0,49.0,30.04,ENE,57,0.0,7.0,62,0.00,,,0.00,,2013-03-20 06:42:00,
2013-03-20 01:52:00,62.0,49.0,30.04,ENE,57,0.0,7.0,62,0.00,,,0.00,,2013-03-20 06:52:00,
2013-03-20 02:02:00,62.0,49.0,30.04,ENE,57,0.0,7.0,62,0.00,,,0.00,,2013-03-20 07:02:00,
2013-03-20 02:12:00,62.0,49.0,30.04,ENE,57,0.0,7.0,62,0.00,,,0.00,,2013-03-20 07:12:00,
2013-03-20 02:22:00,63.0,49.0,30.02,ENE,77,6.0,12.0,60,0.00,,,0.00,,2013-03-20 07:22:00,
2013-03-20 02:32:00,63.0,49.0,30.02,ENE,77,6.0,12.0,60,0.00,,,0.00,,2013-03-20 07:32:00,
2013-03-20 02:40:00,63.0,48.0,30.03,NE,35,0.0,9.0,59,0.00,,,0.00,,2013-03-20 07:40:00,
2013-03-20 02:42:00,63.0,49.0,30.02,ENE,77,6.0,12.0,60,0.00,,,0.00,,2013-03-20 07:42:00,
2013-03-20 02:52:00,63.0,48.0,30.01,ESE,123,3.0,10.0,59,0.00,,,0.00,,2013-03-20 07:52:00,
2013-03-20 03:02:00,63.0,48.0,30.03,NE,35,0.0,9.0,59,0.00,,,0.00,,2013-03-20 08:02:00,
2013-03-20 03:12:00,63.0,48.0,30.03,NE,35,0.0,9.0,59,0.00,,,0.00,,2013-03-20 08:12:00,
2013-03-20 03:22:00,63.0,48.0,30.03,NE,35,0.0,9.0,59,0.00,,,0.00,,2013-03-20 08:22:00,
2013-03-20 03:32:00,63.0,48.0,30.03,NE,35,0.0,9.0,59,0.00,,,0.00,,2013-03-20 08:32:00,
2013-03-20 04:22:00,61.0,47.0,30.07,NNE,29,5.0,14.0,59,0.00,,,0.00,,2013-03-20 09:22:00,
2013-03-20 04:33:00,61.0,46.0,30.09,NNE,21,7.0,14.0,58,0.00,,,0.00,,2013-03-20 09:33:00,
2013-03-20 04:43:00,61.0,46.0,30.09,NNE,21,7.0,14.0,58,0.00,,,0.00,,2013-03-20 09:43:00,
2013-03-20 04:53:00,61.0,46.0,30.09,NE,39,4.0,12.0,58,0.00,,,0.00,,2013-03-20 09:53:00,
2013-03-20 05:03:00,61.0,46.0,30.09,NE,39,4.0,12.0,58,0.00,,,0.00,,2013-03-20 10:03:00,
2013-03-20 05:12:00,61.0,46.0,30.09,NE,39,4.0,12.0,58,0.00,,,0.00,,2013-03-20 10:12:00,
2013-03-20 05:22:00,60.0,46.0,30.07,NNE,14,10.0,18.0,59,0.00,,,0.00,,2013-03-20 10:22:00,
2013-03-20 05:32:00,59.0,45.0,30.07,NNE,28,14.0,21.0,60,0.00,,,0.00,,2013-03-20 10:32:00,
2013-03-20 05:43:00,59.0,45.0,30.07,NNE,28,14.0,21.0,60,0.00,,,0.00,,2013-03-20 10:43:00,
2013-03-20 05:50:00,59.0,45.0,30.11,NNE,30,11.0,20.0,59,0.00,,,0.00,,2013-03-20 10:50:00,
2013-03-20 05:53:00,59.0,44.0,30.09,North,11,10.0,21.0,58,0.00,,,0.00,,2013-03-20 10:53:00,
2013-03-20 06:02:00,59.0,45.0,30.10,NE,37,6.0,22.0,59,0.00,,,0.00,,2013-03-20 11:02:00,
2013-03-20 06:12:00,59.0,45.0,30.10,NE,37,6.0,22.0,59,0.00,,,0.00,,2013-03-20 11:12:00,
2013-03-20 06:22:00,59.0,45.0,30.11,NNE,30,11.0,20.0,59,0.00,,,0.00,,2013-03-20 11:22:00,
2013-03-20 06:32:00,59.0,45.0,30.11,NNE,30,11.0,20.0,59,0.00,,,0.00,,2013-03-20 11:32:00,
2013-03-20 06:42:00,59.0,45.0,30.11,NNE,30,11.0,20.0,59,0.00,,,0.00,,2013-03-20 11:42:00,
2013-03-20 07:02:00,58.0,44.0,30.17,NNE,21,7.0,14.0,60,0.00,,,0.00,,2013-03-20 12:02:00,
2013-03-20 07:12:00,58.0,44.0,30.17,NNE,21,7.0,14.0,60,0.00,,,0.00,,2013-03-20 12:12:00,
2013-03-20 07:22:00,57.0,46.0,30.19,NNE,20,3.0,9.0,66,0.00,,,0.00,,2013-03-20 12:22:00,
2013-03-20 07:32:00,57.0,46.0,30.19,NNE,20,3.0,9.0,66,0.00,,,0.00,,2013-03-20 12:32:00,
2013-03-20 07:42:00,57.0,46.0,30.19,NNE,20,3.0,9.0,66,0.00,,,0.00,,2013-03-20 12:42:00,
2013-03-20 07:52:00,55.0,49.0,30.20,North,353,0.0,3.0,80,0.02,,,0.02,,2013-03-20 12:52:00,
2013-03-20 08:03:00,55.0,49.0,30.20,North,353,0.0,3.0,80,0.02,,,0.02,,2013-03-20 13:03:00,
2013-03-20 08:12:00,55.0,49.0,30.20,North,353,0.0,3.0,80,0.02,,,0.02,,2013-03-20 13:12:00,
2013-03-20 08:20:00,52.0,50.0,30.21,SSE,157,0.0,0.0,94,0.07,,,0.09,,2013-03-20 13:20:00,
2013-03-20 08:22:00,52.0,49.0,30.17,East,82,0.0,7.0,91,0.08,,,0.08,,2013-03-20 13:22:00,
2013-03-20 08:32:00,52.0,50.0,30.19,SSE,157,0.0,3.0,93,0.07,,,0.08,,2013-03-20 13:32:00,
2013-03-20 08:43:00,52.0,50.0,30.19,SSE,157,0.0,3.0,93,0.07,,,0.08,,2013-03-20 13:43:00,
2013-03-20 08:53:00,52.0,50.0,30.21,SSE,157,0.0,0.0,94,0.07,,,0.09,,2013-03-20 13:53:00,
2013-03-20 09:02:00,52.0,50.0,30.21,SSE,157,0.0,0.0,94,0.07,,,0.09,,2013-03-20 14:02:00,
2013-03-20 09:12:00,52.0,50.0,30.21,SSE,157,0.0,0.0,94,0.07,,,0.09,,2013-03-20 14:12:00,
2013-03-20 09:53:00,51.0,50.0,30.22,North,11,10.0,18.0,98,0.13,,,0.23,,2013-03-20 14:53:00,
2013-03-20 10:02:00,51.0,50.0,30.22,North,11,10.0,18.0,98,0.13,,,0.23,,2013-03-20 15:02:00,
2013-03-20 10:12:00,52.0,51.0,30.24,North,357,0.0,7.0,97,0.11,,,0.24,,2013-03-20 15:12:00,
2013-03-20 10:22:00,52.0,51.0,30.24,North,357,0.0,7.0,97,0.11,,,0.24,,2013-03-20 15:22:00,
2013-03-20 10:33:00,53.0,52.0,30.25,NNE,21,6.0,12.0,96,0.01,,,0.24,,2013-03-20 15:33:00,
2013-03-20 10:43:00,53.0,52.0,30.25,NNE,21,6.0,12.0,96,0.01,,,0.24,,2013-03-20 15:43:00,
2013-03-20 10:52:00,53.0,52.0,30.25,NNE,21,6.0,12.0,96,0.01,,,0.24,,2013-03-20 15:52:00,
2013-03-20 11:03:00,53.0,52.0,30.24,NNE,13,1.0,8.0,95,0.01,,,0.24,,2013-03-20 16:03:00,
2013-03-20 11:12:00,53.0,52.0,30.24,NNE,13,1.0,8.0,95,0.01,,,0.24,,2013-03-20 16:12:00,
2013-03-20 11:23:00,54.0,53.0,30.24,NNE,12,1.0,7.0,95,0.00,,,0.24,,2013-03-20 16:23:00,
2013-03-20 11:32:00,54.0,52.0,30.24,NNE,20,3.0,9.0,92,0.00,,,0.24,,2013-03-20 16:32:00,
2013-03-20 11:42:00,54.0,52.0,30.24,NNE,20,3.0,9.0,92,0.00,,,0.24,,2013-03-20 16:42:00,
2013-03-20 11:52:00,56.0,52.0,30.23,NNE,28,6.0,12.0,88,0.00,,,0.24,,2013-03-20 16:52:00,
2013-03-20 12:03:00,56.0,52.0,30.23,NNE,28,6.0,12.0,88,0.00,,,0.24,,2013-03-20 17:03:00,
2013-03-20 12:12:00,56.0,52.0,30.23,NNE,28,6.0,12.0,88,0.00,,,0.24,,2013-03-20 17:12:00,
2013-03-20 12:22:00,61.0,53.0,30.21,ENE,67,1.0,8.0,76,0.00,,,0.24,,2013-03-20 17:22:00,
2013-03-20 12:32:00,62.0,54.0,30.20,NE,35,5.0,9.0,75,0.00,,,0.24,,2013-03-20 17:32:00,
2013-03-20 12:42:00,62.0,54.0,30.20,NE,35,5.0,9.0,75,0.00,,,0.24,,2013-03-20 17:42:00,
2013-03-20 12:53:00,64.0,54.0,30.18,East,86,1.0,7.0,69,0.00,,,0.24,,2013-03-20 17:53:00,
2013-03-20 13:02:00,64.0,54.0,30.18,East,86,1.0,7.0,69,0.00,,,0.24,,2013-03-20 18:02:00,
2013-03-20 13:12:00,64.0,54.0,30.18,East,86,1.0,7.0,69,0.00,,,0.24,,2013-03-20 18:12:00,
2013-03-20 13:22:00,64.0,54.0,30.18,East,86,1.0,7.0,69,0.00,,,0.24,,2013-03-20 18:22:00,
2013-03-20 13:33:00,66.0,52.0,30.15,NE,47,4.0,12.0,61,0.00,,,0.24,,2013-03-20 18:33:00,
2013-03-20 13:43:00,66.0,52.0,30.15,NE,47,4.0,12.0,61,0.00,,,0.24,,2013-03-20 18:43:00,
2013-03-20 13:53:00,66.0,52.0,30.15,NE,47,4.0,12.0,61,0.00,,,0.24,,2013-03-20 18:53:00,
2013-03-20 14:02:00,67.0,52.0,30.13,ENE,57,6.0,13.0,58,0.00,,,0.24,,2013-03-20 19:02:00,
2013-03-20 14:12:00,67.0,52.0,30.13,ENE,57,6.0,13.0,58,0.00,,,0.24,,2013-03-20 19:12:00,
2013-03-20 14:22:00,67.0,52.0,30.13,ENE,57,6.0,13.0,58,0.00,,,0.24,,2013-03-20 19:22:00,
2013-03-20 14:32:00,69.0,49.0,30.10,ENE,62,4.0,17.0,49,0.00,,,0.24,,2013-03-20 19:32:00,
2013-03-20 14:42:00,69.0,49.0,30.10,ENE,62,4.0,17.0,49,0.00,,,0.24,,2013-03-20 19:42:00,
2013-03-20 14:53:00,70.0,50.0,30.09,NE,40,6.0,15.0,49,0.00,,,0.24,,2013-03-20 19:53:00,
2013-03-20 15:02:00,70.0,49.0,30.08,NNE,21,10.0,16.0,47,0.00,,,0.24,,2013-03-20 20:02:00,
2013-03-20 15:12:00,70.0,49.0,30.08,NNE,21,10.0,16.0,47,0.00,,,0.24,,2013-03-20 20:12:00,
2013-03-20 15:22:00,71.0,49.0,30.07,NE,36,6.0,14.0,46,0.00,,,0.24,,2013-03-20 20:22:00,
2013-03-20 15:32:00,71.0,49.0,30.07,NE,36,6.0,14.0,46,0.00,,,0.24,,2013-03-20 20:32:00,
2013-03-20 15:42:00,71.0,49.0,30.07,NE,36,6.0,14.0,46,0.00,,,0.24,,2013-03-20 20:42:00,
2013-03-20 15:52:00,72.0,45.0,30.06,NE,36,7.0,14.0,38,0.00,,,0.24,,2013-03-20 20:52:00,
2013-03-20 16:02:00,72.0,45.0,30.06,NE,36,7.0,14.0,38,0.00,,,0.24,,2013-03-20 21:02:00,
2013-03-20 16:12:00,72.0,45.0,30.06,NE,36,7.0,14.0,38,0.00,,,0.24,,2013-03-20 21:12:00,
2013-03-20 16:22:00,72.0,42.0,30.04,East,81,5.0,20.0,34,0.00,,,0.24,,2013-03-20 21:22:00,
2013-03-20 16:33:00,72.0,42.0,30.04,East,81,5.0,20.0,34,0.00,,,0.24,,2013-03-20 21:33:00,
2013-03-20 16:42:00,72.0,42.0,30.04,East,81,5.0,20.0,34,0.00,,,0.24,,2013-03-20 21:42:00,
2013-03-20 16:50:00,72.0,41.0,30.03,NE,46,3.0,12.0,33,0.00,,,0.24,,2013-03-20 21:50:00,
2013-03-20 16:52:00,72.0,41.0,30.04,WNW,289,3.0,16.0,33,0.00,,,0.24,,2013-03-20 21:52:00,
2013-03-20 17:03:00,72.0,41.0,30.03,NE,46,3.0,12.0,33,0.00,,,0.24,,2013-03-20 22:03:00,
2013-03-20 17:12:00,72.0,41.0,30.03,NE,46,3.0,12.0,33,0.00,,,0.24,,2013-03-20 22:12:00,
2013-03-20 17:23:00,72.0,41.0,30.03,NE,46,3.0,12.0,33,0.00,,,0.24,,2013-03-20 22:23:00,
2013-03-20 17:33:00,72.0,41.0,30.03,NE,46,3.0,12.0,33,0.00,,,0.24,,2013-03-20 22:33:00,
2013-03-20 17:42:00,72.0,41.0,30.03,NE,46,3.0,12.0,33,0.00,,,0.24,,2013-03-20 22:42:00,
2013-03-20 18:02:00,70.0,35.0,30.04,NE,50,3.0,18.0,28,0.00,,,0.24,,2013-03-20 23:02:00,
2013-03-20 18:12:00,70.0,35.0,30.04,NE,50,3.0,18.0,28,0.00,,,0.24,,2013-03-20 23:12:00,
2013-03-20 18:22:00,70.0,35.0,30.03,NE,52,3.0,14.0,28,0.00,,,0.24,,2013-03-20 23:22:00,
2013-03-20 18:32:00,69.0,35.0,30.04,ENE,69,2.0,9.0,29,0.00,,,0.24,,2013-03-20 23:32:00,
2013-03-20 18:42:00,69.0,35.0,30.04,ENE,69,2.0,9.0,29,0.00,,,0.24,,2013-03-20 23:42:00,
2013-03-20 18:52:00,68.0,35.0,30.04,NE,48,2.0,13.0,30,0.00,,,0.24,,2013-03-20 23:52:00,
2013-03-20 19:02:00,67.0,35.0,30.05,NE,49,2.0,9.0,31,0.00,,,0.24,,2013-03-21 00:02:00,
2013-03-20 19:12:00,67.0,35.0,30.05,NE,49,2.0,9.0,31,0.00,,,0.24,,2013-03-21 00:12:00,
2013-03-20 19:23:00,65.0,35.0,30.06,North,4,0.0,6.0,33,0.00,,,0.24,,2013-03-21 00:23:00,
2013-03-20 19:32:00,63.0,36.0,30.06,NNE,30,0.0,5.0,37,0.00,,,0.24,,2013-03-21 00:32:00,
2013-03-20 19:42:00,63.0,36.0,30.06,NNE,30,0.0,5.0,37,0.00,,,0.24,,2013-03-21 00:42:00,
2013-03-20 19:52:00,62.0,36.0,30.07,NE,45,0.0,5.0,38,0.00,,,0.24,,2013-03-21 00:52:00,
2013-03-20 20:02:00,61.0,36.0,30.07,North,11,0.0,2.0,40,0.00,,,0.24,,2013-03-21 01:02:00,
2013-03-20 20:12:00,61.0,36.0,30.07,North,11,0.0,2.0,40,0.00,,,0.24,,2013-03-21 01:12:00,
2013-03-20 20:22:00,60.0,36.0,30.07,North,11,0.0,0.0,41,0.00,,,0.24,,2013-03-21 01:22:00,
2013-03-20 20:32:00,59.0,37.0,30.09,North,11,0.0,0.0,43,0.00,,,0.24,,2013-03-21 01:32:00,
2013-03-20 20:42:00,59.0,37.0,30.09,North,11,0.0,0.0,43,0.00,,,0.24,,2013-03-21 01:42:00,
2013-03-20 20:52:00,59.0,38.0,30.09,North,11,0.0,0.0,45,0.00,,,0.24,,2013-03-21 01:52:00,
2013-03-20 21:02:00,56.0,38.0,30.10,North,11,0.0,0.0,51,0.00,,,0.24,,2013-03-21 02:02:00,
2013-03-20 21:12:00,56.0,38.0,30.10,North,11,0.0,0.0,51,0.00,,,0.24,,2013-03-21 02:12:00,
2013-03-20 21:22:00,55.0,37.0,30.11,North,11,0.0,0.0,50,0.00,,,0.24,,2013-03-21 02:22:00,
2013-03-20 21:32:00,55.0,37.0,30.11,North,11,0.0,0.0,51,0.00,,,0.24,,2013-03-21 02:32:00,
2013-03-20 21:42:00,55.0,37.0,30.11,North,11,0.0,0.0,51,0.00,,,0.24,,2013-03-21 02:42:00,
2013-03-20 21:51:00,55.0,37.0,30.11,North,11,0.0,0.0,51,0.00,,,0.24,,2013-03-21 02:51:00,
2013-03-20 22:02:00,55.0,38.0,30.11,North,11,0.0,0.0,53,0.00,,,0.24,,2013-03-21 03:02:00,
2013-03-20 22:12:00,55.0,38.0,30.11,North,11,0.0,0.0,53,0.00,,,0.24,,2013-03-21 03:12:00,
2013-03-20 22:22:00,53.0,38.0,30.13,North,11,0.0,0.0,57,0.00,,,0.24,,2013-03-21 03:22:00,
2013-03-20 22:33:00,53.0,38.0,30.12,North,11,0.0,0.0,56,0.00,,,0.24,,2013-03-21 03:33:00,
2013-03-20 22:43:00,53.0,38.0,30.12,North,11,0.0,0.0,56,0.00,,,0.24,,2013-03-21 03:43:00,
2013-03-20 22:53:00,53.0,37.0,30.11,North,11,0.0,0.0,54,0.00,,,0.24,,2013-03-21 03:53:00,
2013-03-20 23:03:00,54.0,38.0,30.12,North,11,0.0,0.0,54,0.00,,,0.24,,2013-03-21 04:03:00,
2013-03-20 23:10:00,53.0,38.0,30.12,North,11,0.0,0.0,57,0.00,,,0.24,,2013-03-21 04:10:00,
2013-03-20 23:13:00,54.0,38.0,30.12,North,11,0.0,0.0,54,0.00,,,0.24,,2013-03-21 04:13:00,
2013-03-20 23:22:00,54.0,38.0,30.12,North,11,0.0,0.0,55,0.00,,,0.24,,2013-03-21 04:22:00,
2013-03-20 23:32:00,53.0,38.0,30.12,North,11,0.0,0.0,57,0.00,,,0.24,,2013-03-21 04:32:00,
2013-03-20 23:43:00,53.0,38.0,30.12,North,11,0.0,0.0,57,0.00,,,0.24,,2013-03-21 04:43:00,
2013-03-20 23:52:00,53.0,38.0,30.12,North,11,0.0,0.0,57,0.00,,,0.24,,2013-03-21 04:52:00,